AVA8532 SKBO-SKMR

Flight info

Callsign AVA8532
Flight time 0h 57m
Altitude 32000
Route OSUSU4R GIKPU UQ120 PADUD DCT XOGEN XOGEN2A
Aircraft A320/M-SDE3FGHIRWY/LB1

Departure

Time 2026-05-04 17:35
Airport El Dorado International Airport (SKBO)

Arrival

Time 2026-05-04 18:33
Airport Los Garzones Airport (SKMR)
Time Latitude Longitude Altitude Speed Heading
2026-05-04 17:10 4.69894 -74.14500 8365 ft 0 kts 212°
2026-05-04 17:21 4.69908 -74.14491 8365 ft 3 kts 213°
2026-05-04 17:21 4.69941 -74.14470 8365 ft 2 kts 205°
2026-05-04 17:22 4.69950 -74.14467 8365 ft 1 kts 172°
2026-05-04 17:22 4.69959 -74.14469 8365 ft 2 kts 138°
2026-05-04 17:23 4.69995 -74.14515 8365 ft 3 kts 126°
2026-05-04 17:23 4.70007 -74.14532 8365 ft 3 kts 126°
2026-05-04 17:23 4.70031 -74.14566 8365 ft 3 kts 124°
2026-05-04 17:24 4.70038 -74.14577 8366 ft 1 kts 101°
2026-05-04 17:24 4.70029 -74.14598 8366 ft 1 kts 41°
2026-05-04 17:25 4.70023 -74.14604 8365 ft 1 kts 38°
2026-05-04 17:25 4.70019 -74.14607 8365 ft 0 kts 38°
2026-05-04 17:27 4.70020 -74.14606 8365 ft 1 kts 38°
2026-05-04 17:28 4.70060 -74.14590 8365 ft 5 kts 356°
2026-05-04 17:29 4.70183 -74.14670 8365 ft 8 kts 359°
2026-05-04 17:29 4.70300 -74.14594 8365 ft 4 kts 40°
2026-05-04 17:30 4.70427 -74.14502 8365 ft 10 kts 38°
2026-05-04 17:31 4.70553 -74.14512 8366 ft 12 kts 307°
2026-05-04 17:31 4.70734 -74.14746 8366 ft 16 kts 309°
2026-05-04 17:32 4.70883 -74.14939 8366 ft 19 kts 307°
2026-05-04 17:33 4.70965 -74.15047 8366 ft 4 kts 308°
2026-05-04 17:33 4.70985 -74.15072 8365 ft 6 kts 308°
2026-05-04 17:34 4.71162 -74.15223 8366 ft 14 kts 353°
2026-05-04 17:34 4.71262 -74.15230 8366 ft 14 kts 356°
2026-05-04 17:35 4.71031 -74.14797 8364 ft 88 kts 126°
2026-05-04 17:35 4.69877 -74.13285 8606 ft 157 kts 128°
2026-05-04 17:35 4.69167 -74.12457 9199 ft 165 kts 131°
2026-05-04 17:36 4.68351 -74.11589 9699 ft 173 kts 129°
2026-05-04 17:36 4.67641 -74.10631 10313 ft 175 kts 122°
2026-05-04 17:36 4.66940 -74.09562 10607 ft 193 kts 122°
2026-05-04 17:36 4.66151 -74.08390 10855 ft 212 kts 124°
2026-05-04 17:37 4.65242 -74.07112 11043 ft 232 kts 125°
2026-05-04 17:37 4.64248 -74.05766 11169 ft 255 kts 126°
2026-05-04 17:37 4.63144 -74.04291 11340 ft 274 kts 126°
2026-05-04 17:37 4.61960 -74.02717 11508 ft 292 kts 126°
2026-05-04 17:38 4.60687 -74.01031 11702 ft 315 kts 126°
2026-05-04 17:38 4.59322 -73.99226 11931 ft 333 kts 126°
2026-05-04 17:38 4.57914 -73.97361 12616 ft 338 kts 126°
2026-05-04 17:38 4.56490 -73.95469 13295 ft 342 kts 126°
2026-05-04 17:39 4.53594 -73.91614 14651 ft 350 kts 126°
2026-05-04 17:39 4.52144 -73.89685 15306 ft 353 kts 126°
2026-05-04 17:39 4.50699 -73.87684 15946 ft 355 kts 120°
2026-05-04 17:40 4.49709 -73.85424 16543 ft 357 kts 104°
2026-05-04 17:40 4.49397 -73.82959 17116 ft 359 kts 88°
2026-05-04 17:40 4.49818 -73.80491 17633 ft 364 kts 72°
2026-05-04 17:40 4.50971 -73.78215 18084 ft 371 kts 55°
2026-05-04 17:41 4.52794 -73.76369 18659 ft 377 kts 39°
2026-05-04 17:41 4.55126 -73.75129 19110 ft 386 kts 21°
2026-05-04 17:41 4.57753 -73.74624 19561 ft 395 kts
2026-05-04 17:41 4.60519 -73.74605 20012 ft 400 kts
2026-05-04 17:42 4.63308 -73.74664 20514 ft 402 kts
2026-05-04 17:42 4.66112 -73.74725 20941 ft 405 kts
2026-05-04 17:42 4.68940 -73.74772 21418 ft 408 kts
2026-05-04 17:42 4.71786 -73.74807 21882 ft 410 kts
2026-05-04 17:43 4.74646 -73.74832 22334 ft 413 kts
2026-05-04 17:43 4.77532 -73.74853 22777 ft 416 kts
2026-05-04 17:43 4.80437 -73.74872 23206 ft 419 kts
2026-05-04 17:43 4.83362 -73.74892 23639 ft 422 kts
2026-05-04 17:44 4.86264 -73.74911 24057 ft 424 kts
2026-05-04 17:44 4.89223 -73.74931 24421 ft 427 kts
2026-05-04 17:44 4.92194 -73.74951 24770 ft 429 kts
2026-05-04 17:44 4.95191 -73.74972 25120 ft 432 kts
2026-05-04 17:45 4.98207 -73.74993 25456 ft 434 kts
2026-05-04 17:45 5.01236 -73.75015 25787 ft 437 kts
2026-05-04 17:45 5.04279 -73.75036 26117 ft 439 kts
2026-05-04 17:45 5.07306 -73.75057 26431 ft 442 kts
2026-05-04 17:46 5.10387 -73.75078 26732 ft 444 kts
2026-05-04 17:46 5.13482 -73.75100 27048 ft 446 kts
2026-05-04 17:46 5.16597 -73.75122 27348 ft 449 kts
2026-05-04 17:46 5.19731 -73.75144 27625 ft 451 kts
2026-05-04 17:47 5.22878 -73.75166 27923 ft 454 kts
2026-05-04 17:47 5.26041 -73.75188 28191 ft 457 kts
2026-05-04 17:47 5.29227 -73.75210 28457 ft 459 kts
2026-05-04 17:47 5.32389 -73.75232 28731 ft 461 kts
2026-05-04 17:48 5.35599 -73.75254 29007 ft 463 kts
2026-05-04 17:48 5.38829 -73.75276 29248 ft 465 kts
2026-05-04 17:48 5.42072 -73.75299 29509 ft 467 kts
2026-05-04 17:48 5.45330 -73.75321 29759 ft 469 kts
2026-05-04 17:49 5.48603 -73.75344 29985 ft 472 kts
2026-05-04 17:49 5.51884 -73.75368 30269 ft 473 kts
2026-05-04 17:49 5.55188 -73.75391 30478 ft 475 kts
2026-05-04 17:49 5.58492 -73.75415 30771 ft 476 kts
2026-05-04 17:50 5.61812 -73.75438 31054 ft 478 kts
2026-05-04 17:50 5.65096 -73.75461 31291 ft 479 kts
2026-05-04 17:50 5.68422 -73.75484 31591 ft 479 kts
2026-05-04 17:50 5.71752 -73.75508 31927 ft 477 kts
2026-05-04 17:51 5.75069 -73.75531 32140 ft 476 kts
2026-05-04 17:51 5.78371 -73.75555 32186 ft 475 kts
2026-05-04 17:51 5.84987 -73.75603 32172 ft 475 kts
2026-05-04 17:52 5.91596 -73.75649 32160 ft 475 kts
2026-05-04 17:52 5.97086 -73.75687 32146 ft 475 kts
2026-05-04 17:53 6.04748 -73.75245 32131 ft 474 kts 12°
2026-05-04 17:53 6.11199 -73.73912 32116 ft 473 kts 13°
2026-05-04 17:54 6.17651 -73.72586 32102 ft 474 kts 13°
2026-05-04 17:54 6.23023 -73.71482 32094 ft 474 kts 13°
2026-05-04 17:55 6.29487 -73.70151 32080 ft 474 kts 13°
2026-05-04 17:55 6.35954 -73.68817 32068 ft 475 kts 13°
2026-05-04 17:56 6.42427 -73.67484 32054 ft 475 kts 13°
2026-05-04 17:56 6.48861 -73.66157 32042 ft 476 kts 13°
2026-05-04 17:57 6.55351 -73.64818 32041 ft 476 kts 12°
2026-05-04 17:57 6.61845 -73.63480 32039 ft 476 kts 12°
2026-05-04 17:58 6.68337 -73.62140 32023 ft 476 kts 12°
2026-05-04 17:58 6.74825 -73.60801 32010 ft 476 kts 12°
2026-05-04 17:59 6.81268 -73.59471 31984 ft 476 kts 12°
2026-05-04 18:00 6.91031 -73.57646 31962 ft 477 kts
2026-05-04 18:00 6.94341 -73.57808 31954 ft 477 kts 351°
2026-05-04 18:00 6.97558 -73.58639 31947 ft 478 kts 339°
2026-05-04 18:00 7.00536 -73.60100 31941 ft 478 kts 327°
2026-05-04 18:01 7.03171 -73.62141 31937 ft 478 kts 316°
2026-05-04 18:01 7.07570 -73.67148 31929 ft 478 kts 310°
2026-05-04 18:02 7.14028 -73.74681 31915 ft 475 kts 311°
2026-05-04 18:02 7.18374 -73.79686 31920 ft 475 kts 311°
2026-05-04 18:03 7.22719 -73.84683 31922 ft 474 kts 311°
2026-05-04 18:03 7.27062 -73.89680 31928 ft 474 kts 311°
2026-05-04 18:04 7.31382 -73.94655 31940 ft 475 kts 311°
2026-05-04 18:05 7.37902 -74.02163 31949 ft 475 kts 311°
2026-05-04 18:05 7.42258 -74.07181 31953 ft 475 kts 311°
2026-05-04 18:06 7.48788 -74.14707 31956 ft 476 kts 311°
2026-05-04 18:06 7.53120 -74.19701 31961 ft 476 kts 311°
2026-05-04 18:07 7.57477 -74.24725 31962 ft 476 kts 311°
2026-05-04 18:07 7.61839 -74.29758 31968 ft 476 kts 311°
2026-05-04 18:08 7.66198 -74.34788 31968 ft 477 kts 311°
2026-05-04 18:08 7.70558 -74.39821 31963 ft 476 kts 311°
2026-05-04 18:09 7.79234 -74.49857 31951 ft 476 kts 309°
2026-05-04 18:10 7.83239 -74.55176 31941 ft 476 kts 307°
2026-05-04 18:10 7.87218 -74.60501 31935 ft 476 kts 307°
2026-05-04 18:11 7.91176 -74.65796 31927 ft 475 kts 307°
2026-05-04 18:11 7.95152 -74.71120 31922 ft 475 kts 307°
2026-05-04 18:12 7.99127 -74.76445 31915 ft 475 kts 307°
2026-05-04 18:12 8.03099 -74.81768 31900 ft 474 kts 307°
2026-05-04 18:13 8.05076 -74.84418 31622 ft 472 kts 307°
2026-05-04 18:13 8.07075 -74.87099 30974 ft 473 kts 307°
2026-05-04 18:13 8.11039 -74.92416 29131 ft 480 kts 307°
2026-05-04 18:14 8.13053 -74.95117 28110 ft 483 kts 307°
2026-05-04 18:14 8.15077 -74.97832 27083 ft 485 kts 307°
2026-05-04 18:14 8.17109 -75.00559 26055 ft 488 kts 307°
2026-05-04 18:15 8.21220 -75.06078 23962 ft 495 kts 308°
2026-05-04 18:15 8.25337 -75.11607 22207 ft 488 kts 308°
2026-05-04 18:15 8.27365 -75.14331 21385 ft 483 kts 308°
2026-05-04 18:16 8.29371 -75.17027 20562 ft 479 kts 308°
2026-05-04 18:16 8.31365 -75.19707 19765 ft 475 kts 308°
2026-05-04 18:16 8.33339 -75.22360 18976 ft 471 kts 308°
2026-05-04 18:17 8.37223 -75.27582 17427 ft 463 kts 308°
2026-05-04 18:17 8.39144 -75.30166 16669 ft 458 kts 308°
2026-05-04 18:17 8.42930 -75.35259 15182 ft 448 kts 308°
2026-05-04 18:18 8.44791 -75.37764 14465 ft 444 kts 308°
2026-05-04 18:18 8.46634 -75.40245 13761 ft 439 kts 308°
2026-05-04 18:18 8.48459 -75.42701 13006 ft 435 kts 308°
2026-05-04 18:18 8.50239 -75.45095 12301 ft 429 kts 308°
2026-05-04 18:19 8.53772 -75.49851 11099 ft 414 kts 307°
2026-05-04 18:19 8.55528 -75.52082 10906 ft 396 kts 315°
2026-05-04 18:19 8.57663 -75.53717 10740 ft 377 kts 334°
2026-05-04 18:20 8.60075 -75.54528 10593 ft 358 kts 354°
2026-05-04 18:20 8.62484 -75.54436 10455 ft 338 kts 16°
2026-05-04 18:20 8.64554 -75.53494 10333 ft 319 kts 39°
2026-05-04 18:20 8.65994 -75.51894 10208 ft 301 kts 63°
2026-05-04 18:21 8.66593 -75.49976 10110 ft 284 kts 88°
2026-05-04 18:21 8.66304 -75.48072 10009 ft 270 kts 114°
2026-05-04 18:21 8.65220 -75.46597 9910 ft 259 kts 141°
2026-05-04 18:21 8.63664 -75.45774 9820 ft 248 kts 158°
2026-05-04 18:22 8.62057 -75.45244 9727 ft 237 kts 161°
2026-05-04 18:22 8.60501 -75.44789 9548 ft 230 kts 162°
2026-05-04 18:22 8.58971 -75.44330 9225 ft 229 kts 158°
2026-05-04 18:22 8.57553 -75.43619 8895 ft 227 kts 143°
2026-05-04 18:23 8.56369 -75.42577 8576 ft 226 kts 131°
2026-05-04 18:23 8.55239 -75.41488 8259 ft 226 kts 147°
2026-05-04 18:23 8.53781 -75.40977 7914 ft 228 kts 176°
2026-05-04 18:23 8.52236 -75.41308 7563 ft 231 kts 209°
2026-05-04 18:24 8.51097 -75.42433 7238 ft 232 kts 242°
2026-05-04 18:24 8.50726 -75.43996 6926 ft 232 kts 275°
2026-05-04 18:24 8.51214 -75.45524 6621 ft 230 kts 300°
2026-05-04 18:24 8.52043 -75.46901 6352 ft 229 kts 304°
2026-05-04 18:25 8.52899 -75.48244 6097 ft 227 kts 303°
2026-05-04 18:25 8.53728 -75.49598 5805 ft 226 kts 302°
2026-05-04 18:25 8.54557 -75.50941 5516 ft 225 kts 312°
2026-05-04 18:25 8.55729 -75.51938 5204 ft 228 kts 319°
2026-05-04 18:26 8.56839 -75.53246 5149 ft 256 kts 306°
2026-05-04 18:26 8.57828 -75.54749 5204 ft 260 kts 303°
2026-05-04 18:26 8.58892 -75.56386 5068 ft 293 kts 304°
2026-05-04 18:26 8.60070 -75.58103 5039 ft 300 kts 306°
2026-05-04 18:27 8.61273 -75.59786 4954 ft 289 kts 307°
2026-05-04 18:27 8.62445 -75.61391 4651 ft 281 kts 307°
2026-05-04 18:27 8.63611 -75.62974 4115 ft 279 kts 307°
2026-05-04 18:27 8.64758 -75.64528 3788 ft 268 kts 307°
2026-05-04 18:28 8.65838 -75.65993 3639 ft 252 kts 307°
2026-05-04 18:28 8.66852 -75.67370 3486 ft 237 kts 307°
2026-05-04 18:28 8.67793 -75.68646 3365 ft 221 kts 307°
2026-05-04 18:28 8.68703 -75.69837 3199 ft 208 kts 310°
2026-05-04 18:29 8.69676 -75.70897 3034 ft 203 kts 316°
2026-05-04 18:29 8.70703 -75.71876 2903 ft 197 kts 318°
2026-05-04 18:29 8.71682 -75.72777 2639 ft 183 kts 317°
2026-05-04 18:29 8.72591 -75.73613 2402 ft 171 kts 317°
2026-05-04 18:30 8.74253 -75.75140 1970 ft 154 kts 317°
2026-05-04 18:30 8.75012 -75.75838 1784 ft 145 kts 317°
2026-05-04 18:30 8.75730 -75.76498 1587 ft 135 kts 317°
2026-05-04 18:31 8.76425 -75.77136 1410 ft 136 kts 317°
2026-05-04 18:31 8.77123 -75.77778 1230 ft 135 kts 317°
2026-05-04 18:31 8.77814 -75.78414 1045 ft 135 kts 317°
2026-05-04 18:31 8.78507 -75.79051 889 ft 134 kts 318°
2026-05-04 18:32 8.79196 -75.79684 717 ft 134 kts 318°
2026-05-04 18:32 8.79882 -75.80315 539 ft 133 kts 318°
2026-05-04 18:32 8.80563 -75.80941 366 ft 132 kts 319°
2026-05-04 18:32 8.81237 -75.81576 216 ft 133 kts 319°
2026-05-04 18:33 8.81929 -75.82185 53 ft 127 kts 317°
2026-05-04 18:33 8.82392 -75.82628 52 ft 49 kts 320°
2026-05-04 18:33 8.82495 -75.82714 50 ft 14 kts 321°
2026-05-04 18:33 8.82582 -75.82791 51 ft 19 kts 318°
2026-05-04 18:34 8.82653 -75.82847 49 ft 1 kts 265°
2026-05-04 18:34 8.82643 -75.82849 49 ft 1 kts 191°
2026-05-04 18:34 8.82635 -75.82842 49 ft 3 kts 147°
2026-05-04 18:34 8.82601 -75.82814 47 ft 10 kts 131°
2026-05-04 18:35 8.82535 -75.82750 51 ft 15 kts 139°
2026-05-04 18:35 8.82463 -75.82667 49 ft 16 kts 105°
2026-05-04 18:35 8.82453 -75.82594 55 ft 0 kts 97°
2026-05-04 18:36 8.82453 -75.82588 56 ft 3 kts 96°
2026-05-04 18:36 8.82446 -75.82551 57 ft 8 kts 110°
2026-05-04 18:37 8.82413 -75.82513 50 ft 1 kts 133°
2026-05-04 18:37 8.82405 -75.82504 53 ft 0 kts 128°
2026-05-04 18:37 8.82403 -75.82496 58 ft 2 kts 103°
2026-05-04 18:38 8.82405 -75.82490 54 ft 0 kts 65°
2026-05-04 18:39 8.82418 -75.82479 56 ft 6 kts 45°
2026-05-04 18:39 8.82431 -75.82465 54 ft 0 kts 47°
2026-05-04 18:39 8.82432 -75.82464 53 ft 0 kts 47°